Location: Newark
(34.9500°N, 139.9667°E)
Time: 00:16:28
(UTC+00:00)

Vanguard 2 Rocket - Pass Details

Date: 10 December 2019
Orbit: 554 x 3326 km, 32.9° (Epoch: 27 January)

Event Time Altitude Azimuth Distance (km) Brightness Sun altitude
Rises 09:37:51 0° 254° (WSW) 6,435 12.6 -25.8°
Reaches altitude 10° 09:42:45 10° 253° (WSW) 5,018 11.7 -26.7°
Maximum altitude 09:55:47 74° 172° (S) 1,567 7.9 -29.4°
Enters shadow 09:57:31 59° 112° (ESE) 1,578 7.7 -29.7°
Drops below altitude 10° 10:02:52 10° 88° (E) 2,860 - -30.8°
Sets 10:04:57 0° 87° (E) 3,577 - -31.2°
